BREEZE-M DEB, 43401

Orbit data source: Space-Track

BREEZE-M DEB, 43401 is space debris in HEO originally from a launch on Thu, 17 May 2012 UTC launched from the Tyuratam Missile And Space Complex (TTMTR). Debris objects in space refer to the collection of defunct objects orbiting the Earth. Examples of debris include non-operational satellites, rocket bodies, and fragments generated from explosions, collisions, or faulty payload assembly.

Loading next visibility...
Identifier
43401, 2012-026N
Orbit
HEO
Country
Flag of CISCIS
Related business
Manufacturer
Khrunichev
Mission
Spacecraft
Bus & Motor
Unknown
Mass
Unknown
Launch date (UTC)
2012-05-17 (13 years ago)
Launch vehicle
Unknown
Launch site
Tyuratam Missile And Space Complex (TTMTR)
Object type
Payload
Rocket body
Debris
Shape & HBR
Unknown shape, 1.1 m
Radar Cross Section
RCS unknown

Expand to show TLE details & history
Last TLE update: 15 hours ago

TLE from 15 hours ago
0 BREEZE-M DEB
1 43401U 12026N   25308.95704556 -.00000026  00000-0  00000-0 0  9991
2 43401   9.6017 159.5550 4083528   1.4768 208.0188  1.75796603 84905
Epoch: 2025-11-04T22:58Z
TLE epoch observation values (Epoch: 2025-11-04T22:58:08.736Z)
Latitude
-2.39364°
Longitude
-35.02028°
Altitude
33,744.876 km
Speed
2.475 km/s
True Right ascension
23h 35m 48s
True Declination
-2° 23' 28"
Sunlit
Object was in daylight at epoch
Visualization orbit readout
Latitude
Unknown
Longitude
Unknown
Altitude
Unknown
Speed
Unknown
Apparent Right ascension
Unknown
Apparent Declination
Unknown
Sunlit
N/A
Visualization observer readout
Local Sidereal Time
09:51:40
Azimuth
Unknown
Elevation
Unknown
Doppler factor
Unknown
Orbital elements
Apogee altitude
34,466.519 km
Perigee altitude
10,780.65 km
Semi-major axis
29,001.721 km
Eccentricity
0.40835
Inclination
9.6017°
RAAN
159.555°
Arg. of periapsis
1.4768°
True anomaly
193.04759°
Mean anomaly
208.0188°
Eccentric anomaly
200.01199°
Mean motion
0.43945 °/min
Orbital period
819.21 mins
BSTAR
0
Loading maneuver chart data...
Computing Atmospheric mass density...
Loading historical data...
Loading historical data...
Loading historical data...
Loading historical data...
Loading historical data...
Loading historical data...
Loading historical data...

Documentation

Showing up to 5 results
|